Index of /20260428/WXO-DD/model_rdps/10km/06/045
Name Last modified Size Description
Parent Directory -
20260428T06Z_MSC_RDPS_AbsoluteVorticity_IsbL-0250_RLatLon0.09_PT045H.grib2 2026-04-28 08:53 643K
20260428T06Z_MSC_RDPS_AbsoluteVorticity_IsbL-0500_RLatLon0.09_PT045H.grib2 2026-04-28 08:53 573K
20260428T06Z_MSC_RDPS_AbsoluteVorticity_IsbL-0700_RLatLon0.09_PT045H.grib2 2026-04-28 08:53 623K
20260428T06Z_MSC_RDPS_AbsoluteVorticity_IsbL-0850_RLatLon0.09_PT045H.grib2 2026-04-28 08:53 764K
20260428T06Z_MSC_RDPS_AirTemp_AGL-120m_RLatLon0.09_PT045H.grib2 2026-04-28 08:53 378K
20260428T06Z_MSC_RDPS_AirTemp_AGL-2m_RLatLon0.09_PT045H.grib2 2026-04-28 08:53 613K
20260428T06Z_MSC_RDPS_AirTemp_AGL-40m_RLatLon0.09_PT045H.grib2 2026-04-28 08:53 391K
20260428T06Z_MSC_RDPS_AirTemp_AGL-80m_RLatLon0.09_PT045H.grib2 2026-04-28 08:53 382K
20260428T06Z_MSC_RDPS_AirTemp_IsbL-0001_RLatLon0.09_PT045H.grib2 2026-04-28 08:53 299K
20260428T06Z_MSC_RDPS_AirTemp_IsbL-0005_RLatLon0.09_PT045H.grib2 2026-04-28 08:53 291K
20260428T06Z_MSC_RDPS_AirTemp_IsbL-0010_RLatLon0.09_PT045H.grib2 2026-04-28 08:53 302K
20260428T06Z_MSC_RDPS_AirTemp_IsbL-0020_RLatLon0.09_PT045H.grib2 2026-04-28 08:53 315K
20260428T06Z_MSC_RDPS_AirTemp_IsbL-0030_RLatLon0.09_PT045H.grib2 2026-04-28 08:53 339K
20260428T06Z_MSC_RDPS_AirTemp_IsbL-0050_RLatLon0.09_PT045H.grib2 2026-04-28 08:53 314K
20260428T06Z_MSC_RDPS_AirTemp_IsbL-0100_RLatLon0.09_PT045H.grib2 2026-04-28 08:53 433K
20260428T06Z_MSC_RDPS_AirTemp_IsbL-0150_RLatLon0.09_PT045H.grib2 2026-04-28 08:53 432K
20260428T06Z_MSC_RDPS_AirTemp_IsbL-0175_RLatLon0.09_PT045H.grib2 2026-04-28 08:53 420K
20260428T06Z_MSC_RDPS_AirTemp_IsbL-0200_RLatLon0.09_PT045H.grib2 2026-04-28 08:53 423K
20260428T06Z_MSC_RDPS_AirTemp_IsbL-0225_RLatLon0.09_PT045H.grib2 2026-04-28 08:53 424K
20260428T06Z_MSC_RDPS_AirTemp_IsbL-0250_RLatLon0.09_PT045H.grib2 2026-04-28 08:53 435K
20260428T06Z_MSC_RDPS_AirTemp_IsbL-0275_RLatLon0.09_PT045H.grib2 2026-04-28 08:53 412K
20260428T06Z_MSC_RDPS_AirTemp_IsbL-0300_RLatLon0.09_PT045H.grib2 2026-04-28 08:53 418K
20260428T06Z_MSC_RDPS_AirTemp_IsbL-0350_RLatLon0.09_PT045H.grib2 2026-04-28 08:53 431K
20260428T06Z_MSC_RDPS_AirTemp_IsbL-0400_RLatLon0.09_PT045H.grib2 2026-04-28 08:53 432K
20260428T06Z_MSC_RDPS_AirTemp_IsbL-0450_RLatLon0.09_PT045H.grib2 2026-04-28 08:53 438K
20260428T06Z_MSC_RDPS_AirTemp_IsbL-0500_RLatLon0.09_PT045H.grib2 2026-04-28 08:53 414K
20260428T06Z_MSC_RDPS_AirTemp_IsbL-0550_RLatLon0.09_PT045H.grib2 2026-04-28 08:53 433K
20260428T06Z_MSC_RDPS_AirTemp_IsbL-0600_RLatLon0.09_PT045H.grib2 2026-04-28 08:53 452K
20260428T06Z_MSC_RDPS_AirTemp_IsbL-0650_RLatLon0.09_PT045H.grib2 2026-04-28 08:53 465K
20260428T06Z_MSC_RDPS_AirTemp_IsbL-0700_RLatLon0.09_PT045H.grib2 2026-04-28 08:53 379K
20260428T06Z_MSC_RDPS_AirTemp_IsbL-0750_RLatLon0.09_PT045H.grib2 2026-04-28 08:53 408K
20260428T06Z_MSC_RDPS_AirTemp_IsbL-0800_RLatLon0.09_PT045H.grib2 2026-04-28 08:53 445K
20260428T06Z_MSC_RDPS_AirTemp_IsbL-0850_RLatLon0.09_PT045H.grib2 2026-04-28 08:53 488K
20260428T06Z_MSC_RDPS_AirTemp_IsbL-0875_RLatLon0.09_PT045H.grib2 2026-04-28 08:53 509K
20260428T06Z_MSC_RDPS_AirTemp_IsbL-0900_RLatLon0.09_PT045H.grib2 2026-04-28 08:53 518K
20260428T06Z_MSC_RDPS_AirTemp_IsbL-0925_RLatLon0.09_PT045H.grib2 2026-04-28 08:53 515K
20260428T06Z_MSC_RDPS_AirTemp_IsbL-0950_RLatLon0.09_PT045H.grib2 2026-04-28 08:53 516K
20260428T06Z_MSC_RDPS_AirTemp_IsbL-0970_RLatLon0.09_PT045H.grib2 2026-04-28 08:53 506K
20260428T06Z_MSC_RDPS_AirTemp_IsbL-0985_RLatLon0.09_PT045H.grib2 2026-04-28 08:53 494K
20260428T06Z_MSC_RDPS_AirTemp_IsbL-1000_RLatLon0.09_PT045H.grib2 2026-04-28 08:53 478K
20260428T06Z_MSC_RDPS_AirTemp_IsbL-1015_RLatLon0.09_PT045H.grib2 2026-04-28 08:53 475K
20260428T06Z_MSC_RDPS_Albedo_Sfc_RLatLon0.09_PT045H.grib2 2026-04-28 08:53 162K
20260428T06Z_MSC_RDPS_CAPE_Sfc_RLatLon0.09_PT045H.grib2 2026-04-28 08:53 1.6M
20260428T06Z_MSC_RDPS_CIN_Sfc_RLatLon0.09_PT045H.grib2 2026-04-28 08:53 1.1M
20260428T06Z_MSC_RDPS_CloudWater_EAtm_RLatLon0.09_PT045H.grib2 2026-04-28 08:53 220K
20260428T06Z_MSC_RDPS_ConvectivePrecip-Accum_Sfc_RLatLon0.09_PT045H.grib2 2026-04-28 08:53 1.0M
20260428T06Z_MSC_RDPS_DewPointDepression_AGL-2m_RLatLon0.09_PT045H.grib2 2026-04-28 08:53 393K
20260428T06Z_MSC_RDPS_DewPointDepression_IsbL-0001_RLatLon0.09_PT045H.grib2 2026-04-28 08:53 193
20260428T06Z_MSC_RDPS_DewPointDepression_IsbL-0005_RLatLon0.09_PT045H.grib2 2026-04-28 08:53 193
20260428T06Z_MSC_RDPS_DewPointDepression_IsbL-0010_RLatLon0.09_PT045H.grib2 2026-04-28 08:53 193
20260428T06Z_MSC_RDPS_DewPointDepression_IsbL-0020_RLatLon0.09_PT045H.grib2 2026-04-28 08:53 193
20260428T06Z_MSC_RDPS_DewPointDepression_IsbL-0030_RLatLon0.09_PT045H.grib2 2026-04-28 08:53 193
20260428T06Z_MSC_RDPS_DewPointDepression_IsbL-0050_RLatLon0.09_PT045H.grib2 2026-04-28 08:53 82K
20260428T06Z_MSC_RDPS_DewPointDepression_IsbL-0100_RLatLon0.09_PT045H.grib2 2026-04-28 08:53 133K
20260428T06Z_MSC_RDPS_DewPointDepression_IsbL-0150_RLatLon0.09_PT045H.grib2 2026-04-28 08:53 151K
20260428T06Z_MSC_RDPS_DewPointDepression_IsbL-0175_RLatLon0.09_PT045H.grib2 2026-04-28 08:53 183K
20260428T06Z_MSC_RDPS_DewPointDepression_IsbL-0200_RLatLon0.09_PT045H.grib2 2026-04-28 08:53 221K
20260428T06Z_MSC_RDPS_DewPointDepression_IsbL-0225_RLatLon0.09_PT045H.grib2 2026-04-28 08:53 266K
20260428T06Z_MSC_RDPS_DewPointDepression_IsbL-0250_RLatLon0.09_PT045H.grib2 2026-04-28 08:53 306K
20260428T06Z_MSC_RDPS_DewPointDepression_IsbL-0275_RLatLon0.09_PT045H.grib2 2026-04-28 08:53 311K
20260428T06Z_MSC_RDPS_DewPointDepression_IsbL-0300_RLatLon0.09_PT045H.grib2 2026-04-28 08:53 332K
20260428T06Z_MSC_RDPS_DewPointDepression_IsbL-0350_RLatLon0.09_PT045H.grib2 2026-04-28 08:53 336K
20260428T06Z_MSC_RDPS_DewPointDepression_IsbL-0400_RLatLon0.09_PT045H.grib2 2026-04-28 08:53 342K
20260428T06Z_MSC_RDPS_DewPointDepression_IsbL-0450_RLatLon0.09_PT045H.grib2 2026-04-28 08:53 347K
20260428T06Z_MSC_RDPS_DewPointDepression_IsbL-0500_RLatLon0.09_PT045H.grib2 2026-04-28 08:53 354K
20260428T06Z_MSC_RDPS_DewPointDepression_IsbL-0550_RLatLon0.09_PT045H.grib2 2026-04-28 08:53 370K
20260428T06Z_MSC_RDPS_DewPointDepression_IsbL-0600_RLatLon0.09_PT045H.grib2 2026-04-28 08:53 383K
20260428T06Z_MSC_RDPS_DewPointDepression_IsbL-0650_RLatLon0.09_PT045H.grib2 2026-04-28 08:53 391K
20260428T06Z_MSC_RDPS_DewPointDepression_IsbL-0700_RLatLon0.09_PT045H.grib2 2026-04-28 08:53 399K
20260428T06Z_MSC_RDPS_DewPointDepression_IsbL-0750_RLatLon0.09_PT045H.grib2 2026-04-28 08:53 415K
20260428T06Z_MSC_RDPS_DewPointDepression_IsbL-0800_RLatLon0.09_PT045H.grib2 2026-04-28 08:53 437K
20260428T06Z_MSC_RDPS_DewPointDepression_IsbL-0850_RLatLon0.09_PT045H.grib2 2026-04-28 08:53 461K
20260428T06Z_MSC_RDPS_DewPointDepression_IsbL-0875_RLatLon0.09_PT045H.grib2 2026-04-28 08:53 469K
20260428T06Z_MSC_RDPS_DewPointDepression_IsbL-0900_RLatLon0.09_PT045H.grib2 2026-04-28 08:53 462K
20260428T06Z_MSC_RDPS_DewPointDepression_IsbL-0925_RLatLon0.09_PT045H.grib2 2026-04-28 08:53 448K
20260428T06Z_MSC_RDPS_DewPointDepression_IsbL-0950_RLatLon0.09_PT045H.grib2 2026-04-28 08:53 438K
20260428T06Z_MSC_RDPS_DewPointDepression_IsbL-0970_RLatLon0.09_PT045H.grib2 2026-04-28 08:53 426K
20260428T06Z_MSC_RDPS_DewPointDepression_IsbL-0985_RLatLon0.09_PT045H.grib2 2026-04-28 08:53 418K
20260428T06Z_MSC_RDPS_DewPointDepression_IsbL-1000_RLatLon0.09_PT045H.grib2 2026-04-28 08:53 411K
20260428T06Z_MSC_RDPS_DewPointDepression_IsbL-1015_RLatLon0.09_PT045H.grib2 2026-04-28 08:53 401K
20260428T06Z_MSC_RDPS_DewPoint_AGL-2m_RLatLon0.09_PT045H.grib2 2026-04-28 08:53 300K
20260428T06Z_MSC_RDPS_DownwardLongwaveRadiationFlux-Accum_Sfc_RLatLon0.09_PT045H.grib2 2026-04-28 08:53 361K
20260428T06Z_MSC_RDPS_DownwardShortwaveRadiationFlux-Accum_NTAtm_RLatLon0.09_PT045H.grib2 2026-04-28 08:53 128K
20260428T06Z_MSC_RDPS_DownwardShortwaveRadiationFlux-Accum_Sfc_RLatLon0.09_PT045H.grib2 2026-04-28 08:53 553K
20260428T06Z_MSC_RDPS_FreezingRain-Accum1h_Sfc_RLatLon0.09_PT045H.grib2 2026-04-28 08:53 23K
20260428T06Z_MSC_RDPS_FreezingRain-Accum3h_Sfc_RLatLon0.09_PT045H.grib2 2026-04-28 08:53 23K
20260428T06Z_MSC_RDPS_FreezingRain-Accum_Sfc_RLatLon0.09_PT045H.grib2 2026-04-28 08:53 173K
20260428T06Z_MSC_RDPS_GeopotentialHeight_IsbL-0001_RLatLon0.09_PT045H.grib2 2026-04-28 08:53 236K
20260428T06Z_MSC_RDPS_GeopotentialHeight_IsbL-0005_RLatLon0.09_PT045H.grib2 2026-04-28 08:53 333K
20260428T06Z_MSC_RDPS_GeopotentialHeight_IsbL-0010_RLatLon0.09_PT045H.grib2 2026-04-28 08:53 301K
20260428T06Z_MSC_RDPS_GeopotentialHeight_IsbL-0020_RLatLon0.09_PT045H.grib2 2026-04-28 08:53 300K
20260428T06Z_MSC_RDPS_GeopotentialHeight_IsbL-0030_RLatLon0.09_PT045H.grib2 2026-04-28 08:53 301K
20260428T06Z_MSC_RDPS_GeopotentialHeight_IsbL-0050_RLatLon0.09_PT045H.grib2 2026-04-28 08:53 337K
20260428T06Z_MSC_RDPS_GeopotentialHeight_IsbL-0100_RLatLon0.09_PT045H.grib2 2026-04-28 08:53 285K
20260428T06Z_MSC_RDPS_GeopotentialHeight_IsbL-0150_RLatLon0.09_PT045H.grib2 2026-04-28 08:53 229K
20260428T06Z_MSC_RDPS_GeopotentialHeight_IsbL-0175_RLatLon0.09_PT045H.grib2 2026-04-28 08:53 232K
20260428T06Z_MSC_RDPS_GeopotentialHeight_IsbL-0200_RLatLon0.09_PT045H.grib2 2026-04-28 08:53 265K
20260428T06Z_MSC_RDPS_GeopotentialHeight_IsbL-0225_RLatLon0.09_PT045H.grib2 2026-04-28 08:53 266K
20260428T06Z_MSC_RDPS_GeopotentialHeight_IsbL-0250_RLatLon0.09_PT045H.grib2 2026-04-28 08:53 268K
20260428T06Z_MSC_RDPS_GeopotentialHeight_IsbL-0275_RLatLon0.09_PT045H.grib2 2026-04-28 08:53 267K
20260428T06Z_MSC_RDPS_GeopotentialHeight_IsbL-0300_RLatLon0.09_PT045H.grib2 2026-04-28 08:53 236K
20260428T06Z_MSC_RDPS_GeopotentialHeight_IsbL-0350_RLatLon0.09_PT045H.grib2 2026-04-28 08:53 232K
20260428T06Z_MSC_RDPS_GeopotentialHeight_IsbL-0400_RLatLon0.09_PT045H.grib2 2026-04-28 08:53 229K
20260428T06Z_MSC_RDPS_GeopotentialHeight_IsbL-0450_RLatLon0.09_PT045H.grib2 2026-04-28 08:53 297K
20260428T06Z_MSC_RDPS_GeopotentialHeight_IsbL-0500_RLatLon0.09_PT045H.grib2 2026-04-28 08:53 291K
20260428T06Z_MSC_RDPS_GeopotentialHeight_IsbL-0550_RLatLon0.09_PT045H.grib2 2026-04-28 08:53 287K
20260428T06Z_MSC_RDPS_GeopotentialHeight_IsbL-0600_RLatLon0.09_PT045H.grib2 2026-04-28 08:53 285K
20260428T06Z_MSC_RDPS_GeopotentialHeight_IsbL-0650_RLatLon0.09_PT045H.grib2 2026-04-28 08:53 253K
20260428T06Z_MSC_RDPS_GeopotentialHeight_IsbL-0700_RLatLon0.09_PT045H.grib2 2026-04-28 08:53 333K
20260428T06Z_MSC_RDPS_GeopotentialHeight_IsbL-0750_RLatLon0.09_PT045H.grib2 2026-04-28 08:53 334K
20260428T06Z_MSC_RDPS_GeopotentialHeight_IsbL-0800_RLatLon0.09_PT045H.grib2 2026-04-28 08:53 340K
20260428T06Z_MSC_RDPS_GeopotentialHeight_IsbL-0850_RLatLon0.09_PT045H.grib2 2026-04-28 08:53 380K
20260428T06Z_MSC_RDPS_GeopotentialHeight_IsbL-0875_RLatLon0.09_PT045H.grib2 2026-04-28 08:53 384K
20260428T06Z_MSC_RDPS_GeopotentialHeight_IsbL-0900_RLatLon0.09_PT045H.grib2 2026-04-28 08:53 389K
20260428T06Z_MSC_RDPS_GeopotentialHeight_IsbL-0925_RLatLon0.09_PT045H.grib2 2026-04-28 08:53 392K
20260428T06Z_MSC_RDPS_GeopotentialHeight_IsbL-0950_RLatLon0.09_PT045H.grib2 2026-04-28 08:53 396K
20260428T06Z_MSC_RDPS_GeopotentialHeight_IsbL-0970_RLatLon0.09_PT045H.grib2 2026-04-28 08:53 401K
20260428T06Z_MSC_RDPS_GeopotentialHeight_IsbL-0985_RLatLon0.09_PT045H.grib2 2026-04-28 08:53 409K
20260428T06Z_MSC_RDPS_GeopotentialHeight_IsbL-1000_RLatLon0.09_PT045H.grib2 2026-04-28 08:53 420K
20260428T06Z_MSC_RDPS_GeopotentialHeight_IsbL-1015_RLatLon0.09_PT045H.grib2 2026-04-28 08:53 434K
20260428T06Z_MSC_RDPS_Humidex_Sfc_RLatLon0.09_PT045H.grib2 2026-04-28 08:53 2.4M
20260428T06Z_MSC_RDPS_IcePellets-Accum1h_Sfc_RLatLon0.09_PT045H.grib2 2026-04-28 08:53 1.8K
20260428T06Z_MSC_RDPS_IcePellets-Accum3h_Sfc_RLatLon0.09_PT045H.grib2 2026-04-28 08:53 2.5K
20260428T06Z_MSC_RDPS_IcePellets-Accum_Sfc_RLatLon0.09_PT045H.grib2 2026-04-28 08:53 28K
20260428T06Z_MSC_RDPS_KIndex_Sfc_RLatLon0.09_PT045H.grib2 2026-04-28 08:53 2.5M
20260428T06Z_MSC_RDPS_LatentHeatNetFlux_Sfc_RLatLon0.09_PT045H.grib2 2026-04-28 08:53 397K
20260428T06Z_MSC_RDPS_LiftedIndex-MU-VT_IsbL-0500_RLatLon0.09_PT045H.grib2 2026-04-28 08:53 2.4M
20260428T06Z_MSC_RDPS_NetLongwaveRadiationFlux-Accum_Sfc_RLatLon0.09_PT045H.grib2 2026-04-28 08:53 529K
20260428T06Z_MSC_RDPS_NetShortwaveRadiationFlux-Accum_Sfc_RLatLon0.09_PT045H.grib2 2026-04-28 08:53 554K
20260428T06Z_MSC_RDPS_PlanetaryBoundaryLayerHeight_Sfc_RLatLon0.09_PT045H.grib2 2026-04-28 08:53 1.1M
20260428T06Z_MSC_RDPS_Precip-Accum1h_Sfc_RLatLon0.09_PT045H.grib2 2026-04-28 08:53 1.1M
20260428T06Z_MSC_RDPS_Precip-Accum3h_Sfc_RLatLon0.09_PT045H.grib2 2026-04-28 08:53 1.2M
20260428T06Z_MSC_RDPS_Precip-Accum_Sfc_RLatLon0.09_PT045H.grib2 2026-04-28 08:53 2.0M
20260428T06Z_MSC_RDPS_PrecipRate_Sfc_RLatLon0.09_PT045H.grib2 2026-04-28 08:53 165K
20260428T06Z_MSC_RDPS_PrecipType-Instant_Sfc_RLatLon0.09_PT045H.grib2 2026-04-28 08:53 540K
20260428T06Z_MSC_RDPS_Pressure-Trend3h_Sfc_RLatLon0.09_PT045H.grib2 2026-04-28 08:53 1.2M
20260428T06Z_MSC_RDPS_Pressure_MSL_RLatLon0.09_PT045H.grib2 2026-04-28 08:53 321K
20260428T06Z_MSC_RDPS_Pressure_PVU-1.5_RLatLon0.09_PT045H.grib2 2026-04-28 08:53 2.5M
20260428T06Z_MSC_RDPS_Pressure_PVU-1_RLatLon0.09_PT045H.grib2 2026-04-28 08:53 2.4M
20260428T06Z_MSC_RDPS_Pressure_PVU-2_RLatLon0.09_PT045H.grib2 2026-04-28 08:53 2.4M
20260428T06Z_MSC_RDPS_Pressure_Sfc_RLatLon0.09_PT045H.grib2 2026-04-28 08:53 499K
20260428T06Z_MSC_RDPS_RadiativeTemp_Sfc_RLatLon0.09_PT045H.grib2 2026-04-28 08:53 298K
20260428T06Z_MSC_RDPS_Rain-Accum1h_Sfc_RLatLon0.09_PT045H.grib2 2026-04-28 08:53 547K
20260428T06Z_MSC_RDPS_Rain-Accum3h_Sfc_RLatLon0.09_PT045H.grib2 2026-04-28 08:53 563K
20260428T06Z_MSC_RDPS_Rain-Accum_Sfc_RLatLon0.09_PT045H.grib2 2026-04-28 08:53 1.6M
20260428T06Z_MSC_RDPS_RelativeHumidity_AGL-2m_RLatLon0.09_PT045H.grib2 2026-04-28 08:53 1.0M
20260428T06Z_MSC_RDPS_RelativeHumidity_IsbL-0010_RLatLon0.09_PT045H.grib2 2026-04-28 08:53 628K
20260428T06Z_MSC_RDPS_RelativeHumidity_IsbL-0020_RLatLon0.09_PT045H.grib2 2026-04-28 08:53 681K
20260428T06Z_MSC_RDPS_RelativeHumidity_IsbL-0030_RLatLon0.09_PT045H.grib2 2026-04-28 08:53 604K
20260428T06Z_MSC_RDPS_RelativeHumidity_IsbL-0050_RLatLon0.09_PT045H.grib2 2026-04-28 08:53 370K
20260428T06Z_MSC_RDPS_RelativeHumidity_IsbL-0100_RLatLon0.09_PT045H.grib2 2026-04-28 08:53 288K
20260428T06Z_MSC_RDPS_RelativeHumidity_IsbL-0150_RLatLon0.09_PT045H.grib2 2026-04-28 08:53 419K
20260428T06Z_MSC_RDPS_RelativeHumidity_IsbL-0175_RLatLon0.09_PT045H.grib2 2026-04-28 08:53 491K
20260428T06Z_MSC_RDPS_RelativeHumidity_IsbL-0200_RLatLon0.09_PT045H.grib2 2026-04-28 08:53 562K
20260428T06Z_MSC_RDPS_RelativeHumidity_IsbL-0225_RLatLon0.09_PT045H.grib2 2026-04-28 08:53 633K
20260428T06Z_MSC_RDPS_RelativeHumidity_IsbL-0250_RLatLon0.09_PT045H.grib2 2026-04-28 08:53 708K
20260428T06Z_MSC_RDPS_RelativeHumidity_IsbL-0275_RLatLon0.09_PT045H.grib2 2026-04-28 08:53 734K
20260428T06Z_MSC_RDPS_RelativeHumidity_IsbL-0300_RLatLon0.09_PT045H.grib2 2026-04-28 08:53 778K
20260428T06Z_MSC_RDPS_RelativeHumidity_IsbL-0350_RLatLon0.09_PT045H.grib2 2026-04-28 08:53 797K
20260428T06Z_MSC_RDPS_RelativeHumidity_IsbL-0400_RLatLon0.09_PT045H.grib2 2026-04-28 08:53 804K
20260428T06Z_MSC_RDPS_RelativeHumidity_IsbL-0450_RLatLon0.09_PT045H.grib2 2026-04-28 08:53 803K
20260428T06Z_MSC_RDPS_RelativeHumidity_IsbL-0500_RLatLon0.09_PT045H.grib2 2026-04-28 08:53 811K
20260428T06Z_MSC_RDPS_RelativeHumidity_IsbL-0550_RLatLon0.09_PT045H.grib2 2026-04-28 08:53 832K
20260428T06Z_MSC_RDPS_RelativeHumidity_IsbL-0600_RLatLon0.09_PT045H.grib2 2026-04-28 08:53 854K
20260428T06Z_MSC_RDPS_RelativeHumidity_IsbL-0650_RLatLon0.09_PT045H.grib2 2026-04-28 08:53 867K
20260428T06Z_MSC_RDPS_RelativeHumidity_IsbL-0700_RLatLon0.09_PT045H.grib2 2026-04-28 08:53 885K
20260428T06Z_MSC_RDPS_RelativeHumidity_IsbL-0750_RLatLon0.09_PT045H.grib2 2026-04-28 08:53 922K
20260428T06Z_MSC_RDPS_RelativeHumidity_IsbL-0800_RLatLon0.09_PT045H.grib2 2026-04-28 08:53 971K
20260428T06Z_MSC_RDPS_RelativeHumidity_IsbL-0850_RLatLon0.09_PT045H.grib2 2026-04-28 08:53 1.0M
20260428T06Z_MSC_RDPS_RelativeHumidity_IsbL-0875_RLatLon0.09_PT045H.grib2 2026-04-28 08:53 1.0M
20260428T06Z_MSC_RDPS_RelativeHumidity_IsbL-0900_RLatLon0.09_PT045H.grib2 2026-04-28 08:53 1.0M
20260428T06Z_MSC_RDPS_RelativeHumidity_IsbL-0925_RLatLon0.09_PT045H.grib2 2026-04-28 08:53 1.0M
20260428T06Z_MSC_RDPS_RelativeHumidity_IsbL-0950_RLatLon0.09_PT045H.grib2 2026-04-28 08:53 1.0M
20260428T06Z_MSC_RDPS_RelativeHumidity_IsbL-0970_RLatLon0.09_PT045H.grib2 2026-04-28 08:53 1.0M
20260428T06Z_MSC_RDPS_RelativeHumidity_IsbL-0985_RLatLon0.09_PT045H.grib2 2026-04-28 08:53 1.0M
20260428T06Z_MSC_RDPS_RelativeHumidity_IsbL-1000_RLatLon0.09_PT045H.grib2 2026-04-28 08:53 1.0M
20260428T06Z_MSC_RDPS_RelativeHumidity_IsbL-1015_RLatLon0.09_PT045H.grib2 2026-04-28 08:53 1.0M
20260428T06Z_MSC_RDPS_Runoff-Accum_Sfc_RLatLon0.09_PT045H.grib2 2026-04-28 08:53 66K
20260428T06Z_MSC_RDPS_SWEATIndex_Sfc_RLatLon0.09_PT045H.grib2 2026-04-28 08:53 2.4M
20260428T06Z_MSC_RDPS_SeeingIndex_EAtm_RLatLon0.09_PT045H.grib2 2026-04-28 08:53 1.0M
20260428T06Z_MSC_RDPS_SensibleHeatNetFlux_Sfc_RLatLon0.09_PT045H.grib2 2026-04-28 08:53 282K
20260428T06Z_MSC_RDPS_ShowalterIndex_IsbL-0500_RLatLon0.09_PT045H.grib2 2026-04-28 08:53 2.6M
20260428T06Z_MSC_RDPS_SkyTransparencyIndex_EAtm_RLatLon0.09_PT045H.grib2 2026-04-28 08:53 664K
20260428T06Z_MSC_RDPS_Snow-Accum1h_Sfc_RLatLon0.09_PT045H.grib2 2026-04-28 08:53 470K
20260428T06Z_MSC_RDPS_Snow-Accum3h_Sfc_RLatLon0.09_PT045H.grib2 2026-04-28 08:53 423K
20260428T06Z_MSC_RDPS_Snow-Accum_Sfc_RLatLon0.09_PT045H.grib2 2026-04-28 08:53 795K
20260428T06Z_MSC_RDPS_SnowDensity_Sfc_RLatLon0.09_PT045H.grib2 2026-04-28 08:53 181K
20260428T06Z_MSC_RDPS_SnowDepth_Sfc_RLatLon0.09_PT045H.grib2 2026-04-28 08:53 688K
20260428T06Z_MSC_RDPS_SoilTemp_DBS-0to10cm_RLatLon0.09_PT045H.grib2 2026-04-28 08:53 236K
20260428T06Z_MSC_RDPS_SoilTemp_Sfc_RLatLon0.09_PT045H.grib2 2026-04-28 08:53 264K
20260428T06Z_MSC_RDPS_SoilVolumetricIceContent_Sfc_RLatLon0.09_PT045H.grib2 2026-04-28 08:53 165K
20260428T06Z_MSC_RDPS_SoilVolumetricWaterContent_DBS-0to10cm_RLatLon0.09_PT045H.grib2 2026-04-28 08:53 266K
20260428T06Z_MSC_RDPS_SoilVolumetricWaterContent_DBS-0to1cm_RLatLon0.09_PT045H.grib2 2026-04-28 08:53 336K
20260428T06Z_MSC_RDPS_SpecificHumidity_AGL-120m_RLatLon0.09_PT045H.grib2 2026-04-28 08:53 474K
20260428T06Z_MSC_RDPS_SpecificHumidity_AGL-2m_RLatLon0.09_PT045H.grib2 2026-04-28 08:53 638K
20260428T06Z_MSC_RDPS_SpecificHumidity_AGL-40m_RLatLon0.09_PT045H.grib2 2026-04-28 08:53 480K
20260428T06Z_MSC_RDPS_SpecificHumidity_AGL-80m_RLatLon0.09_PT045H.grib2 2026-04-28 08:53 476K
20260428T06Z_MSC_RDPS_SpecificHumidity_IsbL-0001_RLatLon0.09_PT045H.grib2 2026-04-28 08:53 347K
20260428T06Z_MSC_RDPS_SpecificHumidity_IsbL-0005_RLatLon0.09_PT045H.grib2 2026-04-28 08:53 359K
20260428T06Z_MSC_RDPS_SpecificHumidity_IsbL-0010_RLatLon0.09_PT045H.grib2 2026-04-28 08:53 395K
20260428T06Z_MSC_RDPS_SpecificHumidity_IsbL-0020_RLatLon0.09_PT045H.grib2 2026-04-28 08:53 386K
20260428T06Z_MSC_RDPS_SpecificHumidity_IsbL-0030_RLatLon0.09_PT045H.grib2 2026-04-28 08:53 368K
20260428T06Z_MSC_RDPS_SpecificHumidity_IsbL-0050_RLatLon0.09_PT045H.grib2 2026-04-28 08:53 456K
20260428T06Z_MSC_RDPS_SpecificHumidity_IsbL-0100_RLatLon0.09_PT045H.grib2 2026-04-28 08:53 357K
20260428T06Z_MSC_RDPS_SpecificHumidity_IsbL-0150_RLatLon0.09_PT045H.grib2 2026-04-28 08:53 357K
20260428T06Z_MSC_RDPS_SpecificHumidity_IsbL-0175_RLatLon0.09_PT045H.grib2 2026-04-28 08:53 448K
20260428T06Z_MSC_RDPS_SpecificHumidity_IsbL-0200_RLatLon0.09_PT045H.grib2 2026-04-28 08:53 460K
20260428T06Z_MSC_RDPS_SpecificHumidity_IsbL-0225_RLatLon0.09_PT045H.grib2 2026-04-28 08:53 464K
20260428T06Z_MSC_RDPS_SpecificHumidity_IsbL-0250_RLatLon0.09_PT045H.grib2 2026-04-28 08:53 572K
20260428T06Z_MSC_RDPS_SpecificHumidity_IsbL-0275_RLatLon0.09_PT045H.grib2 2026-04-28 08:53 484K
20260428T06Z_MSC_RDPS_SpecificHumidity_IsbL-0300_RLatLon0.09_PT045H.grib2 2026-04-28 08:53 560K
20260428T06Z_MSC_RDPS_SpecificHumidity_IsbL-0350_RLatLon0.09_PT045H.grib2 2026-04-28 08:53 577K
20260428T06Z_MSC_RDPS_SpecificHumidity_IsbL-0400_RLatLon0.09_PT045H.grib2 2026-04-28 08:53 528K
20260428T06Z_MSC_RDPS_SpecificHumidity_IsbL-0450_RLatLon0.09_PT045H.grib2 2026-04-28 08:53 577K
20260428T06Z_MSC_RDPS_SpecificHumidity_IsbL-0500_RLatLon0.09_PT045H.grib2 2026-04-28 08:53 514K
20260428T06Z_MSC_RDPS_SpecificHumidity_IsbL-0550_RLatLon0.09_PT045H.grib2 2026-04-28 08:53 591K
20260428T06Z_MSC_RDPS_SpecificHumidity_IsbL-0600_RLatLon0.09_PT045H.grib2 2026-04-28 08:53 647K
20260428T06Z_MSC_RDPS_SpecificHumidity_IsbL-0650_RLatLon0.09_PT045H.grib2 2026-04-28 08:53 565K
20260428T06Z_MSC_RDPS_SpecificHumidity_IsbL-0700_RLatLon0.09_PT045H.grib2 2026-04-28 08:53 606K
20260428T06Z_MSC_RDPS_SpecificHumidity_IsbL-0750_RLatLon0.09_PT045H.grib2 2026-04-28 08:53 655K
20260428T06Z_MSC_RDPS_SpecificHumidity_IsbL-0800_RLatLon0.09_PT045H.grib2 2026-04-28 08:53 722K
20260428T06Z_MSC_RDPS_SpecificHumidity_IsbL-0850_RLatLon0.09_PT045H.grib2 2026-04-28 08:53 787K
20260428T06Z_MSC_RDPS_SpecificHumidity_IsbL-0875_RLatLon0.09_PT045H.grib2 2026-04-28 08:53 816K
20260428T06Z_MSC_RDPS_SpecificHumidity_IsbL-0900_RLatLon0.09_PT045H.grib2 2026-04-28 08:53 833K
20260428T06Z_MSC_RDPS_SpecificHumidity_IsbL-0925_RLatLon0.09_PT045H.grib2 2026-04-28 08:53 835K
20260428T06Z_MSC_RDPS_SpecificHumidity_IsbL-0950_RLatLon0.09_PT045H.grib2 2026-04-28 08:53 834K
20260428T06Z_MSC_RDPS_SpecificHumidity_IsbL-0970_RLatLon0.09_PT045H.grib2 2026-04-28 08:53 819K
20260428T06Z_MSC_RDPS_SpecificHumidity_IsbL-0985_RLatLon0.09_PT045H.grib2 2026-04-28 08:53 667K
20260428T06Z_MSC_RDPS_SpecificHumidity_IsbL-1000_RLatLon0.09_PT045H.grib2 2026-04-28 08:53 657K
20260428T06Z_MSC_RDPS_SpecificHumidity_IsbL-1015_RLatLon0.09_PT045H.grib2 2026-04-28 08:53 647K
20260428T06Z_MSC_RDPS_SpecificHumidity_Sfc_RLatLon0.09_PT045H.grib2 2026-04-28 08:53 308K
20260428T06Z_MSC_RDPS_StormRelativeHelicity_EtaL-10000_RLatLon0.09_PT045H.grib2 2026-04-28 08:53 1.1M
20260428T06Z_MSC_RDPS_StormSeverityIndex_EtaL-10000_RLatLon0.09_PT045H.grib2 2026-04-28 08:53 1.1M
20260428T06Z_MSC_RDPS_Thickness_IsbL-0850to0700_RLatLon0.09_PT045H.grib2 2026-04-28 08:53 177K
20260428T06Z_MSC_RDPS_Thickness_IsbL-1000to0500_RLatLon0.09_PT045H.grib2 2026-04-28 08:53 199K
20260428T06Z_MSC_RDPS_Thickness_IsbL-1000to0850_RLatLon0.09_PT045H.grib2 2026-04-28 08:53 182K
20260428T06Z_MSC_RDPS_TotalCloudCover_Sfc_RLatLon0.09_PT045H.grib2 2026-04-28 08:53 643K
20260428T06Z_MSC_RDPS_TotalTotalsIndex_Sfc_RLatLon0.09_PT045H.grib2 2026-04-28 08:53 2.4M
20260428T06Z_MSC_RDPS_UVIndex-ClearSky_Sfc_RLatLon0.09_PT045H.grib2 2026-04-28 08:53 94K
20260428T06Z_MSC_RDPS_UVIndex_Sfc_RLatLon0.09_PT045H.grib2 2026-04-28 08:53 191K
20260428T06Z_MSC_RDPS_UpwardLongwaveRadiationFlux_NTAtm_RLatLon0.09_PT045H.grib2 2026-04-28 08:53 495K
20260428T06Z_MSC_RDPS_UpwardShortwaveRadiationFlux_NTAtm_RLatLon0.09_PT045H.grib2 2026-04-28 08:53 189K
20260428T06Z_MSC_RDPS_VerticalVelocity_IsbL-0250_RLatLon0.09_PT045H.grib2 2026-04-28 08:53 563K
20260428T06Z_MSC_RDPS_VerticalVelocity_IsbL-0500_RLatLon0.09_PT045H.grib2 2026-04-28 08:53 545K
20260428T06Z_MSC_RDPS_VerticalVelocity_IsbL-0700_RLatLon0.09_PT045H.grib2 2026-04-28 08:53 593K
20260428T06Z_MSC_RDPS_VerticalVelocity_IsbL-0850_RLatLon0.09_PT045H.grib2 2026-04-28 08:53 678K
20260428T06Z_MSC_RDPS_VerticalWindShear_EtaL-6500_RLatLon0.09_PT045H.grib2 2026-04-28 08:53 1.2M
20260428T06Z_MSC_RDPS_WindChill_Sfc_RLatLon0.09_PT045H.grib2 2026-04-28 08:53 1.1M
20260428T06Z_MSC_RDPS_WindDir_AGL-10m_RLatLon0.09_PT045H.grib2 2026-04-28 08:53 955K
20260428T06Z_MSC_RDPS_WindDir_AGL-120m_RLatLon0.09_PT045H.grib2 2026-04-28 08:53 596K
20260428T06Z_MSC_RDPS_WindDir_AGL-40m_RLatLon0.09_PT045H.grib2 2026-04-28 08:53 626K
20260428T06Z_MSC_RDPS_WindDir_AGL-80m_RLatLon0.09_PT045H.grib2 2026-04-28 08:53 607K
20260428T06Z_MSC_RDPS_WindDir_IsbL-0001_RLatLon0.09_PT045H.grib2 2026-04-28 08:53 313K
20260428T06Z_MSC_RDPS_WindDir_IsbL-0005_RLatLon0.09_PT045H.grib2 2026-04-28 08:53 356K
20260428T06Z_MSC_RDPS_WindDir_IsbL-0010_RLatLon0.09_PT045H.grib2 2026-04-28 08:53 396K
20260428T06Z_MSC_RDPS_WindDir_IsbL-0020_RLatLon0.09_PT045H.grib2 2026-04-28 08:53 408K
20260428T06Z_MSC_RDPS_WindDir_IsbL-0030_RLatLon0.09_PT045H.grib2 2026-04-28 08:53 419K
20260428T06Z_MSC_RDPS_WindDir_IsbL-0050_RLatLon0.09_PT045H.grib2 2026-04-28 08:53 433K
20260428T06Z_MSC_RDPS_WindDir_IsbL-0100_RLatLon0.09_PT045H.grib2 2026-04-28 08:53 434K
20260428T06Z_MSC_RDPS_WindDir_IsbL-0150_RLatLon0.09_PT045H.grib2 2026-04-28 08:53 426K
20260428T06Z_MSC_RDPS_WindDir_IsbL-0175_RLatLon0.09_PT045H.grib2 2026-04-28 08:53 445K
20260428T06Z_MSC_RDPS_WindDir_IsbL-0200_RLatLon0.09_PT045H.grib2 2026-04-28 08:53 455K
20260428T06Z_MSC_RDPS_WindDir_IsbL-0225_RLatLon0.09_PT045H.grib2 2026-04-28 08:53 458K
20260428T06Z_MSC_RDPS_WindDir_IsbL-0250_RLatLon0.09_PT045H.grib2 2026-04-28 08:53 462K
20260428T06Z_MSC_RDPS_WindDir_IsbL-0275_RLatLon0.09_PT045H.grib2 2026-04-28 08:53 485K
20260428T06Z_MSC_RDPS_WindDir_IsbL-0300_RLatLon0.09_PT045H.grib2 2026-04-28 08:53 483K
20260428T06Z_MSC_RDPS_WindDir_IsbL-0350_RLatLon0.09_PT045H.grib2 2026-04-28 08:53 505K
20260428T06Z_MSC_RDPS_WindDir_IsbL-0400_RLatLon0.09_PT045H.grib2 2026-04-28 08:53 525K
20260428T06Z_MSC_RDPS_WindDir_IsbL-0450_RLatLon0.09_PT045H.grib2 2026-04-28 08:53 536K
20260428T06Z_MSC_RDPS_WindDir_IsbL-0500_RLatLon0.09_PT045H.grib2 2026-04-28 08:53 553K
20260428T06Z_MSC_RDPS_WindDir_IsbL-0550_RLatLon0.09_PT045H.grib2 2026-04-28 08:53 574K
20260428T06Z_MSC_RDPS_WindDir_IsbL-0600_RLatLon0.09_PT045H.grib2 2026-04-28 08:53 603K
20260428T06Z_MSC_RDPS_WindDir_IsbL-0650_RLatLon0.09_PT045H.grib2 2026-04-28 08:53 645K
20260428T06Z_MSC_RDPS_WindDir_IsbL-0700_RLatLon0.09_PT045H.grib2 2026-04-28 08:53 689K
20260428T06Z_MSC_RDPS_WindDir_IsbL-0750_RLatLon0.09_PT045H.grib2 2026-04-28 08:53 735K
20260428T06Z_MSC_RDPS_WindDir_IsbL-0800_RLatLon0.09_PT045H.grib2 2026-04-28 08:53 791K
20260428T06Z_MSC_RDPS_WindDir_IsbL-0850_RLatLon0.09_PT045H.grib2 2026-04-28 08:53 856K
20260428T06Z_MSC_RDPS_WindDir_IsbL-0875_RLatLon0.09_PT045H.grib2 2026-04-28 08:53 880K
20260428T06Z_MSC_RDPS_WindDir_IsbL-0900_RLatLon0.09_PT045H.grib2 2026-04-28 08:53 895K
20260428T06Z_MSC_RDPS_WindDir_IsbL-0925_RLatLon0.09_PT045H.grib2 2026-04-28 08:53 906K
20260428T06Z_MSC_RDPS_WindDir_IsbL-0950_RLatLon0.09_PT045H.grib2 2026-04-28 08:53 904K
20260428T06Z_MSC_RDPS_WindDir_IsbL-0970_RLatLon0.09_PT045H.grib2 2026-04-28 08:53 911K
20260428T06Z_MSC_RDPS_WindDir_IsbL-0985_RLatLon0.09_PT045H.grib2 2026-04-28 08:53 918K
20260428T06Z_MSC_RDPS_WindDir_IsbL-1000_RLatLon0.09_PT045H.grib2 2026-04-28 08:53 932K
20260428T06Z_MSC_RDPS_WindDir_IsbL-1015_RLatLon0.09_PT045H.grib2 2026-04-28 08:53 949K
20260428T06Z_MSC_RDPS_WindGust-Max_AGL-10m_RLatLon0.09_PT045H.grib2 2026-04-28 08:53 1.0M
20260428T06Z_MSC_RDPS_WindGust-Min_AGL-10m_RLatLon0.09_PT045H.grib2 2026-04-28 08:53 954K
20260428T06Z_MSC_RDPS_WindGust_AGL-10m_RLatLon0.09_PT045H.grib2 2026-04-28 08:53 1.0M
20260428T06Z_MSC_RDPS_WindSpeed_AGL-10m_RLatLon0.09_PT045H.grib2 2026-04-28 08:53 821K
20260428T06Z_MSC_RDPS_WindSpeed_AGL-120m_RLatLon0.09_PT045H.grib2 2026-04-28 08:53 527K
20260428T06Z_MSC_RDPS_WindSpeed_AGL-40m_RLatLon0.09_PT045H.grib2 2026-04-28 08:53 529K
20260428T06Z_MSC_RDPS_WindSpeed_AGL-80m_RLatLon0.09_PT045H.grib2 2026-04-28 08:53 528K
20260428T06Z_MSC_RDPS_WindSpeed_IsbL-0001_RLatLon0.09_PT045H.grib2 2026-04-28 08:53 252K
20260428T06Z_MSC_RDPS_WindSpeed_IsbL-0005_RLatLon0.09_PT045H.grib2 2026-04-28 08:53 388K
20260428T06Z_MSC_RDPS_WindSpeed_IsbL-0010_RLatLon0.09_PT045H.grib2 2026-04-28 08:53 402K
20260428T06Z_MSC_RDPS_WindSpeed_IsbL-0020_RLatLon0.09_PT045H.grib2 2026-04-28 08:53 323K
20260428T06Z_MSC_RDPS_WindSpeed_IsbL-0030_RLatLon0.09_PT045H.grib2 2026-04-28 08:53 323K
20260428T06Z_MSC_RDPS_WindSpeed_IsbL-0050_RLatLon0.09_PT045H.grib2 2026-04-28 08:53 351K
20260428T06Z_MSC_RDPS_WindSpeed_IsbL-0100_RLatLon0.09_PT045H.grib2 2026-04-28 08:53 448K
20260428T06Z_MSC_RDPS_WindSpeed_IsbL-0150_RLatLon0.09_PT045H.grib2 2026-04-28 08:53 391K
20260428T06Z_MSC_RDPS_WindSpeed_IsbL-0175_RLatLon0.09_PT045H.grib2 2026-04-28 08:53 438K
20260428T06Z_MSC_RDPS_WindSpeed_IsbL-0200_RLatLon0.09_PT045H.grib2 2026-04-28 08:53 456K
20260428T06Z_MSC_RDPS_WindSpeed_IsbL-0225_RLatLon0.09_PT045H.grib2 2026-04-28 08:53 462K
20260428T06Z_MSC_RDPS_WindSpeed_IsbL-0250_RLatLon0.09_PT045H.grib2 2026-04-28 08:53 466K
20260428T06Z_MSC_RDPS_WindSpeed_IsbL-0275_RLatLon0.09_PT045H.grib2 2026-04-28 08:53 484K
20260428T06Z_MSC_RDPS_WindSpeed_IsbL-0300_RLatLon0.09_PT045H.grib2 2026-04-28 08:53 480K
20260428T06Z_MSC_RDPS_WindSpeed_IsbL-0350_RLatLon0.09_PT045H.grib2 2026-04-28 08:53 491K
20260428T06Z_MSC_RDPS_WindSpeed_IsbL-0400_RLatLon0.09_PT045H.grib2 2026-04-28 08:53 491K
20260428T06Z_MSC_RDPS_WindSpeed_IsbL-0450_RLatLon0.09_PT045H.grib2 2026-04-28 08:53 471K
20260428T06Z_MSC_RDPS_WindSpeed_IsbL-0500_RLatLon0.09_PT045H.grib2 2026-04-28 08:53 592K
20260428T06Z_MSC_RDPS_WindSpeed_IsbL-0550_RLatLon0.09_PT045H.grib2 2026-04-28 08:53 591K
20260428T06Z_MSC_RDPS_WindSpeed_IsbL-0600_RLatLon0.09_PT045H.grib2 2026-04-28 08:53 600K
20260428T06Z_MSC_RDPS_WindSpeed_IsbL-0650_RLatLon0.09_PT045H.grib2 2026-04-28 08:53 663K
20260428T06Z_MSC_RDPS_WindSpeed_IsbL-0700_RLatLon0.09_PT045H.grib2 2026-04-28 08:53 686K
20260428T06Z_MSC_RDPS_WindSpeed_IsbL-0750_RLatLon0.09_PT045H.grib2 2026-04-28 08:53 714K
20260428T06Z_MSC_RDPS_WindSpeed_IsbL-0800_RLatLon0.09_PT045H.grib2 2026-04-28 08:53 751K
20260428T06Z_MSC_RDPS_WindSpeed_IsbL-0850_RLatLon0.09_PT045H.grib2 2026-04-28 08:53 794K
20260428T06Z_MSC_RDPS_WindSpeed_IsbL-0875_RLatLon0.09_PT045H.grib2 2026-04-28 08:53 815K
20260428T06Z_MSC_RDPS_WindSpeed_IsbL-0900_RLatLon0.09_PT045H.grib2 2026-04-28 08:53 837K
20260428T06Z_MSC_RDPS_WindSpeed_IsbL-0925_RLatLon0.09_PT045H.grib2 2026-04-28 08:53 849K
20260428T06Z_MSC_RDPS_WindSpeed_IsbL-0950_RLatLon0.09_PT045H.grib2 2026-04-28 08:53 848K
20260428T06Z_MSC_RDPS_WindSpeed_IsbL-0970_RLatLon0.09_PT045H.grib2 2026-04-28 08:53 847K
20260428T06Z_MSC_RDPS_WindSpeed_IsbL-0985_RLatLon0.09_PT045H.grib2 2026-04-28 08:53 840K
20260428T06Z_MSC_RDPS_WindSpeed_IsbL-1000_RLatLon0.09_PT045H.grib2 2026-04-28 08:53 833K
20260428T06Z_MSC_RDPS_WindSpeed_IsbL-1015_RLatLon0.09_PT045H.grib2 2026-04-28 08:53 823K
20260428T06Z_MSC_RDPS_WindU_AGL-10m_RLatLon0.09_PT045H.grib2 2026-04-28 08:53 422K
20260428T06Z_MSC_RDPS_WindU_AGL-120m_RLatLon0.09_PT045H.grib2 2026-04-28 08:53 411K
20260428T06Z_MSC_RDPS_WindU_AGL-40m_RLatLon0.09_PT045H.grib2 2026-04-28 08:53 527K
20260428T06Z_MSC_RDPS_WindU_AGL-80m_RLatLon0.09_PT045H.grib2 2026-04-28 08:53 527K
20260428T06Z_MSC_RDPS_WindU_IsbL-0001_RLatLon0.09_PT045H.grib2 2026-04-28 08:53 292K
20260428T06Z_MSC_RDPS_WindU_IsbL-0005_RLatLon0.09_PT045H.grib2 2026-04-28 08:53 288K
20260428T06Z_MSC_RDPS_WindU_IsbL-0010_RLatLon0.09_PT045H.grib2 2026-04-28 08:53 299K
20260428T06Z_MSC_RDPS_WindU_IsbL-0020_RLatLon0.09_PT045H.grib2 2026-04-28 08:53 352K
20260428T06Z_MSC_RDPS_WindU_IsbL-0030_RLatLon0.09_PT045H.grib2 2026-04-28 08:53 314K
20260428T06Z_MSC_RDPS_WindU_IsbL-0050_RLatLon0.09_PT045H.grib2 2026-04-28 08:53 343K
20260428T06Z_MSC_RDPS_WindU_IsbL-0100_RLatLon0.09_PT045H.grib2 2026-04-28 08:53 344K
20260428T06Z_MSC_RDPS_WindU_IsbL-0150_RLatLon0.09_PT045H.grib2 2026-04-28 08:53 405K
20260428T06Z_MSC_RDPS_WindU_IsbL-0175_RLatLon0.09_PT045H.grib2 2026-04-28 08:53 429K
20260428T06Z_MSC_RDPS_WindU_IsbL-0200_RLatLon0.09_PT045H.grib2 2026-04-28 08:53 448K
20260428T06Z_MSC_RDPS_WindU_IsbL-0225_RLatLon0.09_PT045H.grib2 2026-04-28 08:53 453K
20260428T06Z_MSC_RDPS_WindU_IsbL-0250_RLatLon0.09_PT045H.grib2 2026-04-28 08:53 353K
20260428T06Z_MSC_RDPS_WindU_IsbL-0275_RLatLon0.09_PT045H.grib2 2026-04-28 08:53 368K
20260428T06Z_MSC_RDPS_WindU_IsbL-0300_RLatLon0.09_PT045H.grib2 2026-04-28 08:53 364K
20260428T06Z_MSC_RDPS_WindU_IsbL-0350_RLatLon0.09_PT045H.grib2 2026-04-28 08:53 374K
20260428T06Z_MSC_RDPS_WindU_IsbL-0400_RLatLon0.09_PT045H.grib2 2026-04-28 08:53 478K
20260428T06Z_MSC_RDPS_WindU_IsbL-0450_RLatLon0.09_PT045H.grib2 2026-04-28 08:53 475K
20260428T06Z_MSC_RDPS_WindU_IsbL-0500_RLatLon0.09_PT045H.grib2 2026-04-28 08:53 461K
20260428T06Z_MSC_RDPS_WindU_IsbL-0550_RLatLon0.09_PT045H.grib2 2026-04-28 08:53 462K
20260428T06Z_MSC_RDPS_WindU_IsbL-0600_RLatLon0.09_PT045H.grib2 2026-04-28 08:53 470K
20260428T06Z_MSC_RDPS_WindU_IsbL-0650_RLatLon0.09_PT045H.grib2 2026-04-28 08:53 488K
20260428T06Z_MSC_RDPS_WindU_IsbL-0700_RLatLon0.09_PT045H.grib2 2026-04-28 08:53 509K
20260428T06Z_MSC_RDPS_WindU_IsbL-0750_RLatLon0.09_PT045H.grib2 2026-04-28 08:53 534K
20260428T06Z_MSC_RDPS_WindU_IsbL-0800_RLatLon0.09_PT045H.grib2 2026-04-28 08:53 568K
20260428T06Z_MSC_RDPS_WindU_IsbL-0850_RLatLon0.09_PT045H.grib2 2026-04-28 08:53 611K
20260428T06Z_MSC_RDPS_WindU_IsbL-0875_RLatLon0.09_PT045H.grib2 2026-04-28 08:53 627K
20260428T06Z_MSC_RDPS_WindU_IsbL-0900_RLatLon0.09_PT045H.grib2 2026-04-28 08:53 639K
20260428T06Z_MSC_RDPS_WindU_IsbL-0925_RLatLon0.09_PT045H.grib2 2026-04-28 08:53 648K
20260428T06Z_MSC_RDPS_WindU_IsbL-0950_RLatLon0.09_PT045H.grib2 2026-04-28 08:53 644K
20260428T06Z_MSC_RDPS_WindU_IsbL-0970_RLatLon0.09_PT045H.grib2 2026-04-28 08:53 643K
20260428T06Z_MSC_RDPS_WindU_IsbL-0985_RLatLon0.09_PT045H.grib2 2026-04-28 08:53 776K
20260428T06Z_MSC_RDPS_WindU_IsbL-1000_RLatLon0.09_PT045H.grib2 2026-04-28 08:53 771K
20260428T06Z_MSC_RDPS_WindU_IsbL-1015_RLatLon0.09_PT045H.grib2 2026-04-28 08:53 763K
20260428T06Z_MSC_RDPS_WindV_AGL-10m_RLatLon0.09_PT045H.grib2 2026-04-28 08:53 423K
20260428T06Z_MSC_RDPS_WindV_AGL-120m_RLatLon0.09_PT045H.grib2 2026-04-28 08:53 524K
20260428T06Z_MSC_RDPS_WindV_AGL-40m_RLatLon0.09_PT045H.grib2 2026-04-28 08:53 526K
20260428T06Z_MSC_RDPS_WindV_AGL-80m_RLatLon0.09_PT045H.grib2 2026-04-28 08:53 525K
20260428T06Z_MSC_RDPS_WindV_IsbL-0001_RLatLon0.09_PT045H.grib2 2026-04-28 08:53 293K
20260428T06Z_MSC_RDPS_WindV_IsbL-0005_RLatLon0.09_PT045H.grib2 2026-04-28 08:53 290K
20260428T06Z_MSC_RDPS_WindV_IsbL-0010_RLatLon0.09_PT045H.grib2 2026-04-28 08:53 302K
20260428T06Z_MSC_RDPS_WindV_IsbL-0020_RLatLon0.09_PT045H.grib2 2026-04-28 08:53 317K
20260428T06Z_MSC_RDPS_WindV_IsbL-0030_RLatLon0.09_PT045H.grib2 2026-04-28 08:53 356K
20260428T06Z_MSC_RDPS_WindV_IsbL-0050_RLatLon0.09_PT045H.grib2 2026-04-28 08:53 345K
20260428T06Z_MSC_RDPS_WindV_IsbL-0100_RLatLon0.09_PT045H.grib2 2026-04-28 08:53 339K
20260428T06Z_MSC_RDPS_WindV_IsbL-0150_RLatLon0.09_PT045H.grib2 2026-04-28 08:53 404K
20260428T06Z_MSC_RDPS_WindV_IsbL-0175_RLatLon0.09_PT045H.grib2 2026-04-28 08:53 428K
20260428T06Z_MSC_RDPS_WindV_IsbL-0200_RLatLon0.09_PT045H.grib2 2026-04-28 08:53 345K
20260428T06Z_MSC_RDPS_WindV_IsbL-0225_RLatLon0.09_PT045H.grib2 2026-04-28 08:53 349K
20260428T06Z_MSC_RDPS_WindV_IsbL-0250_RLatLon0.09_PT045H.grib2 2026-04-28 08:53 376K
20260428T06Z_MSC_RDPS_WindV_IsbL-0275_RLatLon0.09_PT045H.grib2 2026-04-28 08:53 390K
20260428T06Z_MSC_RDPS_WindV_IsbL-0300_RLatLon0.09_PT045H.grib2 2026-04-28 08:53 386K
20260428T06Z_MSC_RDPS_WindV_IsbL-0350_RLatLon0.09_PT045H.grib2 2026-04-28 08:53 395K
20260428T06Z_MSC_RDPS_WindV_IsbL-0400_RLatLon0.09_PT045H.grib2 2026-04-28 08:53 372K
20260428T06Z_MSC_RDPS_WindV_IsbL-0450_RLatLon0.09_PT045H.grib2 2026-04-28 08:53 475K
20260428T06Z_MSC_RDPS_WindV_IsbL-0500_RLatLon0.09_PT045H.grib2 2026-04-28 08:53 475K
20260428T06Z_MSC_RDPS_WindV_IsbL-0550_RLatLon0.09_PT045H.grib2 2026-04-28 08:53 476K
20260428T06Z_MSC_RDPS_WindV_IsbL-0600_RLatLon0.09_PT045H.grib2 2026-04-28 08:53 484K
20260428T06Z_MSC_RDPS_WindV_IsbL-0650_RLatLon0.09_PT045H.grib2 2026-04-28 08:53 486K
20260428T06Z_MSC_RDPS_WindV_IsbL-0700_RLatLon0.09_PT045H.grib2 2026-04-28 08:53 506K
20260428T06Z_MSC_RDPS_WindV_IsbL-0750_RLatLon0.09_PT045H.grib2 2026-04-28 08:53 530K
20260428T06Z_MSC_RDPS_WindV_IsbL-0800_RLatLon0.09_PT045H.grib2 2026-04-28 08:53 562K
20260428T06Z_MSC_RDPS_WindV_IsbL-0850_RLatLon0.09_PT045H.grib2 2026-04-28 08:53 739K
20260428T06Z_MSC_RDPS_WindV_IsbL-0875_RLatLon0.09_PT045H.grib2 2026-04-28 08:53 760K
20260428T06Z_MSC_RDPS_WindV_IsbL-0900_RLatLon0.09_PT045H.grib2 2026-04-28 08:53 775K
20260428T06Z_MSC_RDPS_WindV_IsbL-0925_RLatLon0.09_PT045H.grib2 2026-04-28 08:53 785K
20260428T06Z_MSC_RDPS_WindV_IsbL-0950_RLatLon0.09_PT045H.grib2 2026-04-28 08:53 782K
20260428T06Z_MSC_RDPS_WindV_IsbL-0970_RLatLon0.09_PT045H.grib2 2026-04-28 08:53 783K
20260428T06Z_MSC_RDPS_WindV_IsbL-0985_RLatLon0.09_PT045H.grib2 2026-04-28 08:53 777K
20260428T06Z_MSC_RDPS_WindV_IsbL-1000_RLatLon0.09_PT045H.grib2 2026-04-28 08:53 816K
20260428T06Z_MSC_RDPS_WindV_IsbL-1015_RLatLon0.09_PT045H.grib2 2026-04-28 08:53 808K